Voltar ao catálogo

SHIYAN 24C 01

AtivoCiênciaSSO
NORAD 58650·PAYLOAD·🇨🇳 China

Lançado Dec 25, 2023 de South China Sea Launch Area

Loading…

Próximas Passagens (próximas 24 horas)

TLE

ObsoletoSource: Space-Track

Época: Jun 17, 2026, 14:51 UTC

1 58650U 23206A   26168.61922103  .00001252  00000-0  10997-3 0  9993
2 58650  97.4068 136.3876 0003448 148.7532 211.3897 14.98238962135375

Acompanhe SHIYAN 24C 01 em tempo real com AllMySat

Download on the App Store